Theta_e
317 316 319 317 317 313 318 320 320 317 316 320 321 320 318 316 316 319 321 322 323 324 323 323 324 324 323 328 331 331 332 333 334 334 335 334 334 334 334 333 333 332 332 332
317 314 315 318 319 315 316 318 316 316 315 319 318 320 320 318 318 317 317 319 320 320 318 317 315 313 313 318 324 328 329 330 331 332 332 332 333 333 333 333 332 332 332 332
309 309 314 312 316 319 318 314 313 314 314 310 312 315 315 313 313 314 315 317 316 316 317 316 314 312 310 311 312 314 319 324 327 329 330 330 330 330 330 330 331 331 331 330
310 310 313 314 314 317 319 315 313 316 315 312 309 315 311 308 308 307 311 314 314 314 312 312 311 313 310 310 309 310 310 311 313 317 325 328 329 330 331 330 331 331 330 330
307 312 313 312 311 315 314 313 313 312 314 314 312 311 313 306 309 308 306 306 308 307 306 308 308 308 309 309 310 310 310 310 311 312 312 317 322 324 326 326 327 328 328 329
308 310 310 310 311 314 312 315 316 316 316 318 312 312 313 311 309 307 306 309 308 307 305 306 307 308 308 307 308 309 310 309 310 310 311 312 313 314 315 317 318 321 323 323
311 311 310 310 313 313 314 315 318 318 321 315 308 312 311 311 309 305 306 305 309 307 308 309 309 309 308 307 307 308 308 308 309 311 311 311 311 311 312 314 315 318 320 319
310 308 311 311 313 314 315 312 314 315 317 312 306 314 314 307 305 306 306 306 307 308 308 309 309 308 308 307 306 306 306 307 308 310 311 312 313 313 313 312 313 316 318 319
314 310 311 311 311 312 313 313 311 316 310 316 314 311 308 309 307 307 305 306 308 309 309 310 309 308 307 306 305 305 305 304 305 305 306 309 311 312 312 313 314 316 318 318
312 314 311 311 311 311 312 311 316 317 318 318 313 308 311 310 306 306 308 308 308 307 308 308 308 307 306 305 304 304 304 303 303 303 303 304 305 308 310 311 312 313 313 313
311 313 313 313 313 313 311 312 313 313 312 312 310 309 306 306 305 306 306 308 308 308 308 309 308 307 305 304 303 303 303 303 303 303 303 302 302 303 305 307 309 309 309 309
309 312 313 312 309 308 311 311 312 314 315 312 310 313 309 306 305 307 307 306 307 308 309 309 308 306 305 305 303 303 303 303 303 303 303 302 302 302 302 302 303 303 304 304
308 312 316 316 313 311 312 311 310 310 310 314 313 312 304 306 307 307 307 306 307 308 308 308 307 306 306 305 304 304 304 304 304 303 303 303 302 301 301 301 301 301 301 301
308 308 309 312 310 310 314 311 311 311 315 312 311 310 309 309 309 308 308 307 307 307 307 307 306 306 305 304 304 304 304 304 304 303 303 302 302 301 300 300 300 300 300 299
307 308 309 308 309 309 309 308 310 313 313 315 312 312 310 310 308 308 308 306 306 306 305 305 305 306 305 304 303 303 303 303 303 302 302 302 301 301 300 299 299 299 299 298
303 306 304 304 303 305 306 306 307 307 309 312 312 313 311 310 309 307 306 306 306 307 307 306 306 304 303 303 303 302 302 302 302 302 302 301 301 300 299 299 298 298 298 298
305 303 302 303 301 304 304 304 306 305 307 308 309 309 308 308 308 308 307 306 306 307 306 305 305 304 303 303 303 302 302 302 302 302 301 301 300 300 299 298 298 297 297 297
304 303 303 304 300 304 303 300 306 306 306 306 307 308 308 308 308 309 308 308 307 306 305 305 305 305 304 304 302 301 301 302 302 301 300 300 300 300 299 298 297 297 296 296
303 303 304 304 303 301 300 300 302 303 303 304 305 305 304 305 305 307 307 307 307 307 307 306 304 304 303 303 302 301 301 300 300 299 298 298 298 298 298 297 297 296 296 295
299 303 303 300 302 302 300 300 300 303 305 304 303 304 305 304 304 303 303 302 303 304 304 303 302 302 301 302 300 300 299 298 297 297 297 297 297 297 297 296 296 295 294 294
299 301 303 304 303 302 300 300 303 303 301 302 302 301 302 303 303 303 302 301 300 298 298 299 300 300 300 299 298 297 297 296 295 295 295 295 295 296 296 295 295 294 293 291
299 300 301 302 302 301 300 298 300 301 300 300 300 301 301 301 300 300 299 299 299 298 297 296 297 297 297 296 296 296 295 294 295 295 295 294 295 295 294 294 293 291 290 289
299 299 301 302 301 301 298 301 301 300 300 301 300 301 299 300 300 299 297 297 296 296 295 294 295 294 294 295 295 294 294 294 294 294 294 293 293 293 292 292 291 289 287 285
296 296 299 298 300 300 299 299 298 299 300 300 299 299 298 299 299 297 296 295 294 293 294 294 293 293 293 293 294 294 294 293 293 293 292 291 290 290 289 289 288 287 286 284
298 297 299 299 299 298 299 299 299 299 299 297 297 297 298 298 297 296 296 295 294 293 292 292 293 293 293 293 292 292 293 293 292 290 289 288 288 287 287 286 285 285 285 284
296 299 299 301 300 299 300 300 298 298 298 298 297 297 296 296 298 296 296 295 294 293 294 293 292 292 293 293 293 292 292 291 290 288 287 286 286 285 284 284 283 283 283 283
Wind_Speed
4 6 7 10 5 3 2 3 6 0 2 4 10 12 11 4 5 8 9 10 10 10 8 9 11 12 13 15 17 17 17 17 17 16 15 16 18 18 19 20 21 20 19 18
2 10 6 4 4 2 2 1 1 0 2 2 2 14 12 8 8 10 10 10 11 7 7 8 9 10 10 10 13 15 15 14 16 15 15 13 11 14 17 15 18 18 18 18
5 3 12 11 7 7 4 2 1 2 1 2 2 8 10 5 8 10 12 12 10 10 9 7 8 9 7 7 7 9 11 14 15 15 14 13 12 15 12 13 13 16 17 18
1 2 11 12 12 7 3 2 3 3 2 4 2 6 4 3 9 8 12 12 13 11 9 8 8 11 9 5 6 6 6 7 8 12 12 14 15 15 14 11 11 10 12 14
3 5 7 5 4 9 5 3 1 2 2 1 4 5 4 1 5 7 4 4 6 6 8 8 8 9 6 5 5 5 5 6 6 6 7 8 11 12 12 12 12 11 11 14
2 1 2 1 2 3 11 5 3 2 1 5 2 4 8 4 3 1 1 3 4 3 1 3 4 6 6 5 5 4 4 4 4 4 6 7 7 8 8 8 9 8 8 10
2 2 1 2 8 3 6 7 3 4 4 6 3 3 9 11 6 4 3 5 2 0 3 5 6 7 6 5 5 4 4 3 2 2 2 2 4 7 9 8 6 6 6 7
6 4 5 3 3 6 9 12 5 6 4 1 2 6 2 3 4 4 5 6 3 4 3 4 5 7 7 6 5 6 6 5 4 3 2 1 1 2 4 6 7 5 5 7
4 3 1 1 1 2 5 8 8 3 2 1 4 5 10 10 3 3 3 2 6 4 5 5 5 6 7 7 6 6 6 5 4 3 3 2 2 2 2 2 2 4 5 6
2 3 0 0 1 4 5 11 6 4 4 5 5 5 7 6 6 8 5 5 6 4 5 5 6 6 5 6 7 7 6 5 4 3 2 2 1 2 1 2 2 3 5 5
2 3 1 3 3 6 4 5 3 5 1 3 3 4 4 3 1 5 8 6 5 6 7 7 7 6 7 7 7 7 6 5 4 3 2 1 1 1 1 1 1 2 3 4
6 1 3 3 3 5 1 0 6 4 4 3 2 7 4 5 3 5 8 6 4 5 5 5 7 8 8 7 7 7 7 6 5 3 2 2 1 0 1 1 2 2 2 3
0 1 3 4 0 2 4 8 7 3 1 9 5 4 1 4 5 4 5 5 5 6 6 6 7 8 9 8 8 7 7 5 4 3 3 2 2 2 1 1 2 2 2 3
1 2 3 3 3 2 1 1 1 12 6 9 17 18 14 16 16 14 7 3 4 5 6 7 6 8 8 9 9 8 7 5 5 5 5 5 4 4 3 3 3 3 3 4
1 1 2 4 3 3 4 7 5 7 12 7 13 16 15 15 12 14 11 3 5 7 9 9 8 9 11 9 9 10 8 7 7 7 6 5 5 5 5 5 5 5 5 5
2 1 1 3 3 7 7 11 12 14 13 16 18 25 13 16 16 12 11 7 9 12 12 9 9 9 10 12 12 12 8 7 7 6 5 5 5 6 6 6 7 7 7 7
2 4 2 2 5 5 5 9 13 8 9 10 14 22 11 13 11 13 11 10 13 11 7 9 11 14 15 14 14 15 11 10 9 7 5 4 5 5 6 8 9 9 8 7
4 2 1 1 1 4 2 6 4 7 12 12 17 21 16 14 14 14 14 13 12 10 11 11 15 18 19 14 15 15 12 12 10 7 4 4 4 4 6 9 9 9 9 9
11 7 2 3 4 5 11 7 6 9 13 12 16 18 12 7 6 15 12 14 15 15 16 17 18 20 18 16 18 17 15 12 10 9 6 3 3 5 7 9 10 10 10 10
8 11 7 3 5 4 8 2 3 2 9 6 9 9 3 2 7 10 4 6 9 15 16 17 18 16 19 21 21 20 17 13 11 7 4 3 4 5 6 8 9 9 9 8
5 6 13 11 8 5 15 10 2 8 10 1 1 3 2 5 5 14 13 14 10 8 13 9 12 14 17 18 20 19 15 13 9 6 4 3 3 4 5 7 8 9 9 9
8 9 6 7 5 9 6 5 8 9 1 3 8 7 9 8 9 10 12 11 10 8 8 7 8 11 12 15 16 15 13 10 8 6 5 4 3 4 4 5 6 7 9 10
5 9 5 10 7 5 7 6 10 3 8 5 6 7 8 8 8 9 6 7 7 6 1 4 11 14 14 14 13 13 10 9 8 6 6 4 4 4 4 6 7 9 9 7
6 4 5 4 13 16 10 9 10 9 13 9 7 10 8 11 9 6 6 5 3 5 4 7 8 15 14 12 11 10 10 10 9 8 8 7 6 6 6 7 8 9 9 7
4 9 6 6 17 7 12 12 13 10 10 9 8 7 8 8 6 4 6 1 1 3 7 7 11 11 11 12 11 10 10 10 11 10 10 9 9 8 8 7 6 8 9 8
6 10 8 10 13 9 16 8 5 9 8 9 7 5 6 8 7 6 4 3 2 9 6 12 13 11 10 12 12 12 13 13 12 11 12 13 12 11 9 7 6 3 3 6
Wind_Direction
159 176 217 231 238 360 287 223 216 205 36 216 232 254 244 210 249 237 232 223 227 222 215 219 217 218 222 226 225 224 221 223 219 219 221 231 236 240 241 243 246 245 244 243
141 215 155 34 283 313 44 232 199 7 11 220 284 263 258 242 248 237 238 243 241 227 218 205 206 203 210 216 218 219 219 217 215 217 220 227 231 239 242 246 247 245 242 241
192 68 168 176 224 232 228 265 226 355 93 67 310 272 248 231 248 254 248 246 256 249 236 220 203 200 189 187 189 199 210 217 219 222 224 234 243 251 253 249 248 249 251 250
206 45 165 174 198 196 251 267 245 149 200 251 322 261 238 240 254 247 251 251 252 248 245 248 225 212 203 186 191 184 186 192 207 221 225 231 239 248 253 255 255 255 253 251
129 164 164 177 202 194 198 13 110 126 152 262 203 261 227 21 258 241 236 268 284 281 250 237 236 227 190 187 190 195 195 202 216 222 224 231 241 252 259 261 266 260 256 251
58 6 189 326 46 146 136 93 50 45 67 254 206 259 242 207 234 83 345 335 331 334 93 132 124 152 154 169 175 181 175 189 212 226 238 240 250 257 262 264 263 260 253 248
148 145 224 174 113 157 110 158 202 223 210 250 54 245 285 287 278 287 290 318 345 0 140 141 144 147 146 149 151 147 150 143 155 184 220 255 270 270 266 266 265 262 246 241
198 181 190 172 202 176 154 193 191 204 214 322 71 242 226 242 260 267 280 291 219 193 172 167 152 149 145 143 137 132 131 122 115 120 125 93 38 336 297 271 258 260 241 228
189 230 295 290 351 177 164 205 201 47 95 286 248 258 263 293 20 2 314 256 221 211 197 182 162 168 159 152 146 144 142 136 129 121 106 91 89 80 44 16 217 215 212 203
236 216 106 297 183 76 195 144 124 181 197 229 229 259 248 266 357 341 318 235 225 210 214 200 184 179 171 160 158 153 150 148 139 128 117 108 92 88 91 82 105 146 168 172
181 276 136 194 187 169 145 176 104 131 224 263 280 232 211 246 43 331 324 299 253 222 213 201 198 187 178 173 170 168 160 154 148 151 138 116 70 69 78 119 156 169 165 174
1 275 182 185 23 323 269 133 191 201 191 249 289 254 295 319 9 348 330 303 265 252 228 209 197 192 190 188 184 180 173 167 165 170 165 151 116 112 140 146 152 162 172 179
15 351 183 154 259 11 211 213 226 236 60 225 246 245 72 15 35 38 354 325 282 248 215 205 204 205 196 196 194 190 186 182 188 198 207 216 221 218 195 170 164 163 163 170
12 71 50 37 5 14 180 70 248 227 236 254 243 266 272 302 319 325 333 284 260 258 228 220 217 217 213 209 204 201 201 205 213 219 223 225 225 220 216 210 199 192 189 189
315 119 272 225 247 241 248 254 254 247 239 233 263 270 268 281 283 285 294 249 233 227 239 228 224 223 222 217 214 209 212 220 220 219 220 224 229 225 220 217 211 207 205 203
1 124 6 280 276 250 259 254 250 247 249 254 260 268 276 281 279 274 267 256 248 238 221 226 233 241 241 228 221 211 219 217 216 208 202 209 214 215 216 217 213 208 207 206
123 143 160 252 2 345 297 255 233 250 234 257 264 268 294 297 275 261 258 247 244 242 235 207 225 232 236 242 231 214 215 206 199 197 197 210 218 217 221 221 217 212 208 208
166 173 211 304 343 238 248 300 261 245 261 248 260 267 276 277 286 282 262 268 264 252 242 236 228 223 223 231 216 210 208 200 195 193 195 217 229 233 230 224 221 218 214 211
219 212 222 244 225 307 304 263 198 207 263 238 247 273 304 314 276 278 269 265 269 276 272 261 233 231 221 218 208 204 194 190 188 188 189 212 248 248 239 231 225 222 217 214
209 226 219 176 241 249 247 359 229 180 272 324 237 278 317 321 321 308 17 344 306 293 280 267 254 240 230 219 205 194 187 180 184 174 184 222 248 247 241 233 226 224 221 218
146 196 218 230 238 249 259 239 111 258 266 94 231 334 301 293 284 296 306 303 285 299 307 281 235 215 212 197 187 184 176 182 177 176 192 223 246 249 239 226 218 213 206 198
171 172 200 211 235 254 237 123 207 233 210 225 288 287 294 280 286 287 309 304 298 289 294 265 200 184 177 178 178 174 175 176 176 184 198 216 220 229 226 216 208 200 194 183
232 209 195 201 206 229 188 223 223 255 258 249 257 267 261 274 284 297 302 309 323 305 240 256 180 160 163 171 177 174 179 182 189 196 199 207 214 220 213 205 196 188 191 184
235 189 228 187 247 249 237 249 247 244 249 260 257 291 278 277 272 272 286 288 354 294 187 179 190 163 170 182 185 189 192 193 196 199 203 206 204 201 199 204 200 201 197 187
186 164 212 251 259 288 264 242 251 243 255 271 272 248 259 264 267 252 267 15 343 267 277 222 207 205 198 198 202 204 201 205 204 207 206 200 199 192 188 191 207 216 219 215
185 216 229 246 256 231 263 260 214 224 233 231 236 250 241 218 211 204 262 310 30 322 269 272 252 233 219 214 216 217 215 214 213 208 205 201 192 187 181 169 140 143 211 217